Location: Millers Ferry
(32.0990°N, 87.3680°W)
Time: 13:13:08
(UTC-06:00)

CSL-04 Rocket - Visible Passes

Search period start: 11 February 2016 00:00
Search period end: 21 February 2016 00:00
Orbit: 806 x 861 km, 99.0° (Epoch: 11 February)

Date Brightness Start Highest point End Pass type
(mag) Time Alt. Az. Time Alt. Az. Time Alt. Az.
11 Feb 6.7 03:27:20 10° E 03:27:44 10° E 03:28:08 10° E visible
11 Feb 3.5 05:03:03 10° N 05:08:26 75° WNW 05:13:53 10° SSW visible
12 Feb 3.8 04:46:12 10° NNE 04:51:36 75° ESE 04:57:04 10° S visible
13 Feb 4.5 04:29:28 10° NNE 04:34:44 50° E 04:40:02 10° S visible
14 Feb 5.2 04:12:56 10° NE 04:17:50 34° E 04:22:45 10° SSE visible
14 Feb 4.6 05:53:35 10° NNW 05:57:54 25° WNW 06:02:16 10° WSW visible
15 Feb 5.9 03:56:37 10° NE 04:00:54 23° E 04:05:10 10° SSE visible
15 Feb 4.2 05:36:18 10° N 05:41:11 36° WNW 05:46:08 10° SW visible
16 Feb 6.4 03:40:44 10° ENE 03:43:54 16° E 03:47:06 10° SE visible
16 Feb 3.8 05:19:10 10° N 05:24:25 53° WNW 05:29:44 10° SSW visible
17 Feb 3.6 05:02:10 10° N 05:07:37 78° WNW 05:13:06 10° SSW visible
18 Feb 3.9 04:45:20 10° NNE 04:50:46 73° ESE 04:56:16 10° S visible
19 Feb 4.6 04:28:37 10° NNE 04:33:54 49° E 04:39:13 10° S visible
20 Feb 5.3 04:12:05 10° NE 04:17:00 33° E 04:21:55 10° SSE visible
20 Feb 4.6 05:52:40 10° NNW 05:57:05 26° WNW 06:01:33 10° WSW visible
